Regional Weather Roundup
Issued by NWS

Home | Current Version | Previous Version | Text Only | Print | Product List | Glossary On
Versions: 1 2 3 4 5 6 7 8 9 10 11 12 13 14 15 16 17 18 19 20 21 22 23 24 25 26 27 28 29 30 31 32 33 34 35 36 37 38 39 40 41 42 43 44 45 46 47 48 49 50
000
ASUS46 KLOX 041112
RWRCA

SOUTHERN CALIFORNIA WEATHER ROUNDUP
NATIONAL WEATHER SERVICE OXNARD CALIFORNIA
400 AM PDT MON MAY 04 2015

NOTE: "FAIR" INDICATES FEW OR NO CLOUDS BELOW 12,000 FEET WITH NO
SIGNIFICANT WEATHER AND/OR OBSTRUCTIONS TO VISIBILITY.

  -  STATIONS PRECEEDED BY AN ASTERISK (*) ARE NOT NWS OR FAA
     STATIONS AND ARE NOT SUBJECT TO NWS AND FAA QUALITY CONTROL.

CAZ041-042-087-041200-
LA AND ORANGE COUNTY COASTAL AREAS


CITY           SKY/WX    TMP DP  RH WIND       PRES   REMARKS
L.A. DOWNTOWN  CLEAR     57  51  80 CALM      29.92S
L.A. AIRPORT   PTCLDY    57  51  80 SW6       29.92F
LONG BEACH     CLOUDY    59  50  72 NW3       29.92S

CITY           SKY/WX    TMP DP  RH WIND       PRES   REMARKS
AVALON           N/A     59 N/A N/A MISG        N/A
FULLERTON      MOCLDY    57  32  38 CALM      29.91F
*GETTY CENTER    N/A    N/A N/A N/A NE3         N/A
HAWTHORNE      PTCLDY    58  51  78 CALM      29.92F
*LOS ALAMITOS  CLOUDY    58  52  78 N3        29.91F
*REDONDO BEACH   N/A     56  51  83 W2        29.92S
SANTA ANA      CLOUDY    60  51  72 CALM      29.91F
STA MONICA APT CLEAR     56  50  80 CALM      29.92F
*STA MON PIER    N/A     56  52  87 NE3       29.91S
*UCLA            N/A     54  48  82 N3        29.89F

$$

CAZ547-548-048-041200-
LA COUNTY VALLEYS AND INLAND EMPIRE


CITY           SKY/WX    TMP DP  RH WIND       PRES   REMARKS
BURBANK        PTCLDY    56  48  74 CALM      29.91F
VAN NUYS       CLEAR     55  49  80 E5        29.92S

CITY           SKY/WX    TMP DP  RH WIND       PRES   REMARKS
CORONA AIRPORT MOSUNNY   57  52  84 CALM      29.92F
*CHATSWORTH      N/A     55  48  78 CALM      29.92S
CHINO          CLOUDY    59  51  75 W5        29.93S
MARCH AFB      CLOUDY    55  50  82 NW6       29.91S
*NORTHRIDGE      N/A     54  46  76 E2          N/A
ONTARIO        CLOUDY    57  49  74 W5        29.91F
*PASADENA        N/A     55  50  82 CALM        N/A
RIVERSIDE      CLOUDY    55  48  77 CALM      29.92S
SAN BERNARDINO NOT AVBL
*WHITEMAN AP   NOT AVBL
*WOODLAND HILL   N/A     54  48  82 NE1         N/A

$$

CAZ054-055-041200-
LA AND SAN BERNARDINO COUNTY MOUNTAINS


CITY           SKY/WX    TMP DP  RH WIND       PRES   REMARKS
*BIG BEAR AIRP CLOUDY    41  28  60 CALM      30.01F
*CHILAO          N/A     50  28  42 W6          N/A
MT WILSON NWS    N/A     52  25  35 W8G15       N/A
SANDBERG       CLEAR     54  32  43 W3        29.95S
*WARM SPRINGS    N/A     48  44  86 SW6         N/A

$$

CAZ028-029-059-060-099-041200-
ANTELOPE VALLEY AND SURROUNDING AREAS


CITY           SKY/WX    TMP DP  RH WIND       PRES   REMARKS
LANCASTER      CLEAR     57  41  55 SW17      29.86F
PALMDALE       CLEAR     57  37  47 W9        29.87S

CITY           SKY/WX    TMP DP  RH WIND       PRES   REMARKS
29 PALMS       CLOUDY    69  35  28 NW9       29.87F
BARSTOW/DAGGET CLEAR     65  35  33 W15       29.82S
BISHOP         CLEAR     46  29  51 NW6       29.89S
CHINA LAKE     CLEAR     58  28  32 SW7       29.80R
EDWARDS AFB    CLEAR     58  34  41 SW12      29.83F
MOJAVE         FAIR      63  28  27 W17       29.85S
NEEDLES        CLEAR     77  41  27 SW6       29.74S
VICTORVILLE    CLEAR     55  45  67 S7        29.88R

$$

CAZ039-040-041200-
VENTURA AND SANTA BARBARA COUNTY COAST


CITY           SKY/WX    TMP DP  RH WIND       PRES   REMARKS
CAMARILLO      PTCLDY    54  48  80 E5        29.92S
NWS OXNARD       N/A     50  46  86 CALM      29.91S
OXNARD AIRPORT CLOUDY    54  48  80 N3        29.92S
*POINT MUGU    CLEAR     53  48  83 N5        29.93S
SBA APT/GOLETA CLEAR     55  49  80 E6        29.89S
*SANTA BARBARA   N/A     55  48  78 CALM      29.98S
*VENTURA         N/A     54  49  82 CALM      29.53S

$$

CAZ044-045-041200-
VENTURA COUNTY VALLEYS


CITY           SKY/WX    TMP DP  RH WIND       PRES   REMARKS
*SIMI VALLEY     N/A     48  45  90 CALM      29.89S
*OJAI            N/A     43  40  89 CALM      29.88S
*FILLMORE        N/A     48  44  83 CALM      29.82F

$$

CAZ053-041200-
VENTURA COUNTY MOUNTAINS


CITY           SKY/WX    TMP DP  RH WIND       PRES   REMARKS
*LOCKWOOD VLY    N/A     34  25  69 MISG        N/A
*ROSE VALLEY     N/A     36  34  93 MISG        N/A

$$

CAZ034-035-036-041200-
CENTRAL COAST AND SANTA YNEZ VALLEY


CITY           SKY/WX    TMP DP  RH WIND       PRES   REMARKS
SAN LUIS OBISP CLOUDY    49  44  83 E3        29.93S
SANTA MARIA    CLOUDY    52  46  80 CALM      29.94R

CITY           SKY/WX    TMP DP  RH WIND       PRES   REMARKS
*CAL POLY SLO    N/A     48  48 100 CALM        N/A
*LOMPOC        CLOUDY    48  41  76 CALM      29.94S
*SANTA YNEZ    FAIR      45  39  81 CALM      29.93S

$$

CAZ037-038-051-041200-
SAN LUIS OBISPO COUNTY INTERIOR AND CUYAMA VALLEY


CITY           SKY/WX    TMP DP  RH WIND       PRES   REMARKS
*CUYAMA          N/A     46  38  71 W2        29.82S
PASO ROBLES    CLOUDY    49  44  83 NW8       29.92S

$$

CAZ032-033-061-041200-
SOUTHERN DESERTS


CITY           SKY/WX    TMP DP  RH WIND       PRES   REMARKS
BLYTHE         CLEAR     72  51  47 SW7       29.73F
IMPERIAL       CLEAR     69  57  65 S5        29.73R
PALM SPRINGS   PTCLDY    70  48  45 NW14      29.76S
THERMAL        CLEAR     69  50  50 NW13G21   29.72S

$$

ELSEWHERE ACROSS THE WESTERN UNITED STATES AND MEXICO


CITY           SKY/WX    TMP DP  RH WIND       PRES   REMARKS
DENVER, CO     CLOUDY    50  46  86 NE5       30.10R
GRAND CANYON,  MOCLDY    32  30  92 CALM      30.04F
HONOLULU, HI   PTCLDY    73  63  68 E9        30.02F
KAHULUI, MAUI  MOCLDY    72  63  73 NE12      30.01F
LAKE TAHOE, CA PTCLDY    38  31  76 S3        30.02R
LAS VEGAS, NV  PTCLDY    73  29  19 S12       29.74R
MAMMOTH LAKES, FAIR      39  28  65 CALM      30.03S
MEXICO CITY, M PTCLDY    61  52  72 W5        30.24R
PHOENIX, AZ    CLOUDY    67  60  78 S8        29.89R THUNDER
PORTLAND, OR   CLEAR     52  43  71 NW3       29.90S
RENO, NV       PTCLDY    53  31  42 CALM      29.95R
SALT LAKE CITY CLOUDY    59  45  59 S12       29.93S
SAN DIEGO, CA  CLOUDY    63  54  72 NW5       29.92F
SAN FRANCISCO, CLOUDY    52  45  77 SW6       29.94S
SAN JOSE, CA   CLOUDY    55  46  71 SE8       29.93R
SEATTLE, WA    CLEAR     46  39  77 CALM      29.88S
TIJUANA, MEX   CLOUDY    59  50  72 W7        29.93F

$$

STATION/POSITION TIME  TEMP    WIND        PRES    VSBY  WAVE
                       AIR SEA DIR/SP/G                  HT/PER
                 (UTC) (F)     (DEG/KT/KT) (MB)    (MI)  (FT/S)
POINT ARGUELLO B NOT AVBL
WEST SANTA BARBA 1100   56 57  330/ 12/ 14 1012.7S         6/21
POINT CONCEPTION NOT AVBL
EAST SANTA BARBA NOT AVBL
SANTA MONICA BAY 1100   58 63  290/  6/  8 1013.5R         5/19


USA.gov is the U.S. government's official web portal to all federal, state and local government web resources and services.